This demonstration page uses our WeatherBlox Daily Observations layout. Learn more.

Left ArrowRight Arrow

Hourly Observations for September 13, 2022

Temp ( °F °C ) Dew Point ( °F °C ) Humidity (%) Winds ( mph kmh ) Pressure ( in mb ) Visibility ( mi km ) Precip ( " mm )
12:53 am 00:53 Cloudy 62 16.7 54 12.2 75 75 Calm 29.83 1010 10 16 0.00 0.00
1:53 am 01:53 Mostly Cloudy 61 16.1 54 12.2 78 78 Calm 29.82 1010 10 16 0.00 0.00
2:53 am 02:53 Cloudy 62 16.7 54 12.2 75 75 VRB 3 6 29.82 1010 10 16 0.00 0.00
3:53 am 03:53 Cloudy 61 16.1 53 11.7 75 75 VRB 3 6 29.82 1010 10 16 0.00 0.00
4:53 am 04:53 Cloudy 60 15.6 54 12.2 80 80 Calm 29.82 1010 10 16 0.00 0.00
5:53 am 05:53 Cloudy 60 15.6 54 12.2 80 80 VRB 3 6 29.83 1010 10 16 0.00 0.00
6:53 am 06:53 Mostly Clear 57 13.9 54 12.2 89 89 VRB 3 6 29.84 1011 10 16 0.00 0.00
7:43 am 07:43 Mostly Cloudy 59 15 54 12.2 83 83 WNW 5 7 29.87 1011 10 16 0.00 0.00
7:53 am 07:53 Partly Cloudy 58 14.4 54 12.2 87 87 WNW 5 7 29.87 1012 10 16 0.00 0.00
8:53 am 08:53 Mostly Sunny 60 15.6 54 12.2 80 80 WNW 8 13 29.89 1012 10 16 0.00 0.00
9:10 am 09:10 Mostly Cloudy 60 15.6 54 12.2 80 80 NW 9 15 29.90 1012 10 16 0.00 0.00
9:53 am 09:53 Mostly Cloudy 62 16.7 55 12.8 78 78 VRB 5 7 29.91 1013 10 16 0.00 0.00
10:26 am 10:26 Partly Cloudy 63 17.2 53 11.7 70 70 WNW 8 13 29.92 1013 10 16 0.00 0.00
10:53 am 10:53 Mostly Sunny 64 17.8 54 12.2 70 70 WNW 9 15 29.93 1013 10 16 0.00 0.00
11:53 am 11:53 Mostly Sunny 66 18.9 53 11.7 63 63 NW 8 13 29.93 1014 10 16 0.00 0.00
12:53 pm 12:53 Partly Cloudy 68 20 53 11.7 59 59 VRB 7 11 29.93 1014 10 16 0.00 0.00
1:53 pm 13:53 Mostly Cloudy 69 20.6 53 11.7 57 57 VRB 3 6 29.94 1014 10 16 0.00 0.00
2:53 pm 14:53 Partly Cloudy 72 22.2 53 11.7 51 51 W 5 7 29.93 1014 10 16 0.00 0.00
3:53 pm 15:53 Mostly Sunny 74 23.3 56 13.3 53 53 VRB 7 11 29.92 1013 10 16 0.00 0.00
4:53 pm 16:53 Mostly Sunny 73 22.8 56 13.3 55 55 WSW 6 9 29.93 1014 10 16 0.00 0.00
5:53 pm 17:53 Mostly Cloudy 73 22.8 56 13.3 55 55 WNW 8 13 29.94 1014 10 16 0.00 0.00
6:53 pm 18:53 Partly Cloudy 69 20.6 57 13.9 65 65 W 7 11 29.96 1015 10 16 0.00 0.00
7:53 pm 19:53 Cloudy 68 20 58 14.4 70 70 WNW 9 15 29.98 1015 10 16 0.00 0.00
8:53 pm 20:53 Mostly Clear 63 17.2 59 15 87 87 VRB 3 6 30.00 1016 10 16 0.00 0.00
9:53 pm 21:53 Mostly Clear 60 15.6 57 13.9 90 90 Calm 30.01 1016 10 16 0.00 0.00
10:53 pm 22:53 Cloudy 63 17.2 60 15.6 90 90 Calm 30.02 1017 10 16 0.00 0.00
11:53 pm 23:53 Cloudy 63 17.2 61 16.1 93 93 Calm 30.03 1017 10 16 0.00 0.00

Powered by AerisWeather